Date String (YYYY-MM-DD hh:mm:ss) UTC,Instrument flags,absolute air pressure of the measurement (hPa),sample flow rate (lpm),inlet stack bypass flow (lpm),air temperature of the measurement (°C),ambient temperature measured by the external sensor (°C),aerosol sample conditioner tube jacket temperature (°C),OPC LED temperature (°C),internal box temperature (°C),relative humidity of the measurement (%),span deviation,mass concentration of particles derived from Lorenz-Mie calculation of OPC scattering (μg/m³),mass concentration of particles derived from Lorenz-Mie calculation of OPC scattering (μg/m³),mass concentration of particles derived from Lorenz-Mie calculation of OPC scattering (μg/m³)
DateTimeUTC,F1_M11,P_M11,Q1_M11,Q2_M11,T1_M11,T2_M11,T3_M11,T4_M11,T5_M11,U1_M11,ZSPAN_M11,X0_M11,X2_M11,X1_M11
2024-06-05 20:00:00,SystemResetWarning,0827.6,5.00,000.00,028.9,028.1,000.0,037.2,030.7,016.6,0000.0,0004.76,0001.19,0000.67
2024-06-05 20:01:00,SystemResetWarning,0827.6,5.00,000.00,029.0,028.3,000.0,037.2,030.8,016.9,0000.0,0004.86,0001.20,0000.66
2024-06-05 20:02:00,SystemResetWarning,0827.5,5.00,000.00,029.0,028.5,000.0,037.2,030.9,016.8,0000.0,0004.68,0001.15,0000.66
2024-06-05 20:03:00,SystemResetWarning,0827.4,5.00,000.00,029.1,028.7,000.0,037.3,031.0,016.3,0000.0,0004.65,0001.15,0000.66
2024-06-05 20:04:00,SystemResetWarning,0827.4,5.00,000.00,029.2,028.9,000.0,037.3,031.1,016.4,0000.0,0004.74,0001.16,0000.66
2024-06-05 20:05:00,SystemResetWarning,0827.4,5.00,000.00,029.3,028.8,000.0,037.3,031.0,015.6,0000.0,0005.49,0001.21,0000.68
2024-06-05 20:06:00,SystemResetWarning,0827.5,4.98,000.00,029.1,027.0,000.0,037.4,030.2,015.8,0000.0,0006.77,0001.25,0000.68
2024-06-05 20:07:00,SystemResetWarning,0827.4,5.01,000.00,028.7,025.5,000.0,037.4,029.5,016.3,0000.0,0006.57,0001.21,0000.68
2024-06-05 20:08:00,SystemResetWarning,0827.5,5.00,000.00,028.6,026.0,000.0,037.4,029.7,016.6,0000.0,0005.60,0001.17,0000.68
2024-06-05 20:09:00,SystemResetWarning,0827.5,4.99,000.00,028.6,026.5,000.0,037.2,029.9,017.1,0000.0,0005.63,0001.21,0000.69
2024-06-05 20:10:00,SystemResetWarning,0827.5,5.00,000.00,028.6,026.9,000.0,037.2,030.1,016.2,0000.0,0005.61,0001.22,0000.69
2024-06-05 20:11:00,SystemResetWarning,0827.5,5.01,000.00,028.7,027.4,000.0,037.1,030.3,016.0,0000.0,0005.66,0001.24,0000.69
2024-06-05 20:12:00,SystemResetWarning,0827.6,5.00,000.00,028.8,027.7,000.0,037.1,030.5,016.6,0000.0,0005.89,0001.27,0000.69
2024-06-05 20:13:00,SystemResetWarning,0827.5,4.99,000.00,028.8,028.0,000.0,037.1,030.6,016.2,0000.0,0006.01,0001.28,0000.69
2024-06-05 20:14:00,SystemResetWarning,0827.6,5.01,000.00,028.9,028.3,000.0,037.1,030.8,015.9,0000.0,0006.29,0001.29,0000.68
2024-06-05 20:15:00,SystemResetWarning,0827.5,5.01,000.00,029.0,028.5,000.0,037.1,030.9,015.8,0000.0,0006.28,0001.28,0000.68
2024-06-05 20:16:00,SystemResetWarning,0827.5,5.00,000.00,029.1,028.7,000.0,037.2,031.0,015.8,0000.0,0004.95,0001.22,0000.67
2024-06-05 20:17:00,SystemResetWarning,0827.6,5.00,000.00,029.2,028.9,000.0,037.2,031.1,016.7,0000.0,0004.24,0001.23,0000.67
2024-06-05 20:18:00,SystemResetWarning,0827.5,5.00,000.00,029.3,029.0,000.0,037.2,031.2,016.8,0000.0,0004.21,0001.27,0000.68
2024-06-05 20:19:00,SystemResetWarning,0827.5,4.98,000.00,029.2,027.8,000.0,037.3,030.6,016.4,0000.0,0004.14,0001.29,0000.68
2024-06-05 20:20:00,SystemResetWarning,0827.4,5.01,000.00,028.9,025.7,000.0,037.4,029.6,015.8,0000.0,0004.24,0001.31,0000.68
2024-06-05 20:21:00,SystemResetWarning,0827.5,5.01,000.00,028.6,025.8,000.0,037.4,029.5,016.5,0000.0,0004.22,0001.31,0000.68
2024-06-05 20:22:00,SystemResetWarning,0827.6,4.99,000.00,028.6,026.3,000.0,037.3,029.8,016.4,0000.0,0004.37,0001.35,0000.68
2024-06-05 20:23:00,SystemResetWarning,0827.6,5.00,000.00,028.6,026.8,000.0,037.2,030.1,016.4,0000.0,0004.15,0001.34,0000.67
2024-06-05 20:24:00,SystemResetWarning,0827.7,5.01,000.00,028.7,027.2,000.0,037.1,030.3,017.1,0000.0,0004.32,0001.35,0000.67
2024-06-05 20:25:00,SystemResetWarning,0827.7,5.00,000.00,028.8,027.6,000.0,037.1,030.4,015.8,0000.0,0004.96,0001.32,0000.66
2024-06-05 20:26:00,SystemResetWarning,0827.7,5.00,000.00,028.8,027.9,000.0,037.1,030.6,016.0,0000.0,0005.84,0001.30,0000.66
2024-06-05 20:27:00,SystemResetWarning,0827.7,5.00,000.00,028.9,028.2,000.0,037.1,030.7,015.9,0000.0,0006.11,0001.33,0000.66
2024-06-05 20:28:00,SystemResetWarning,0827.7,5.00,000.00,029.0,028.4,000.0,037.1,030.8,015.5,0000.0,0005.69,0001.28,0000.65
2024-06-05 20:29:00,SystemResetWarning,0827.7,5.00,000.00,029.1,028.6,000.0,037.2,030.9,015.3,0000.0,0004.72,0001.21,0000.64
2024-06-05 20:30:00,SystemResetWarning,0827.7,5.00,000.00,029.2,028.8,000.0,037.2,031.0,015.6,0000.0,0005.27,0001.20,0000.63
2024-06-05 20:31:00,SystemResetWarning,0827.7,5.00,000.00,029.2,029.0,000.0,037.2,031.1,015.8,0000.0,0005.99,0001.15,0000.63
2024-06-05 20:32:00,SystemResetWarning,0827.7,4.99,000.00,029.3,029.0,000.0,037.3,031.2,016.1,0000.0,0005.98,0001.12,0000.61
2024-06-05 20:33:00,SystemResetWarning,0827.7,4.98,000.00,029.2,027.5,000.0,037.4,030.5,016.0,0000.0,0006.92,0001.04,0000.60
2024-06-05 20:34:00,SystemResetWarning,0827.6,5.02,000.00,028.8,025.6,000.0,037.4,029.5,015.5,0000.0,0007.46,0001.03,0000.60
2024-06-05 20:35:00,SystemResetWarning,0827.6,5.01,000.00,028.7,025.9,000.0,037.4,029.6,016.0,0000.0,0007.39,0001.04,0000.61
2024-06-05 20:36:00,SystemResetWarning,0827.6,5.00,000.00,028.7,026.5,000.0,037.3,029.9,016.0,0000.0,0006.86,0001.07,0000.61
2024-06-05 20:37:00,SystemResetWarning,0827.7,5.00,000.00,028.7,026.9,000.0,037.2,030.1,015.9,0000.0,0006.27,0001.07,0000.61
2024-06-05 20:38:00,SystemResetWarning,0827.6,5.00,000.00,028.7,027.3,000.0,037.2,030.3,016.0,0000.0,0005.93,0001.01,0000.60
2024-06-05 20:39:00,SystemResetWarning,0827.6,5.00,000.00,028.8,027.7,000.0,037.2,030.5,016.0,0000.0,0006.03,0001.03,0000.60
2024-06-05 20:40:00,SystemResetWarning,0827.7,4.99,000.00,028.9,028.0,000.0,037.2,030.7,015.3,0000.0,0006.06,0001.03,0000.60
2024-06-05 20:41:00,SystemResetWarning,0827.7,5.00,000.00,029.0,028.3,000.0,037.2,030.8,015.6,0000.0,0005.85,0001.04,0000.61
2024-06-05 20:42:00,SystemResetWarning,0827.7,5.00,000.00,029.1,028.6,000.0,037.2,030.9,015.3,0000.0,0005.02,0001.04,0000.62
2024-06-05 20:43:00,SystemResetWarning,0827.7,5.00,000.00,029.1,028.7,000.0,037.2,031.0,015.6,0000.0,0004.93,0001.04,0000.63
2024-06-05 20:44:00,SystemResetWarning,0827.7,4.99,000.00,029.2,028.9,000.0,037.2,031.1,015.8,0000.0,0003.80,0001.05,0000.63
2024-06-05 20:45:00,SystemResetWarning,0827.6,4.98,000.00,029.2,028.1,000.0,037.3,030.7,015.8,0000.0,0004.14,0001.03,0000.64
2024-06-05 20:46:00,SystemResetWarning,0827.5,5.01,000.00,028.9,025.9,000.0,037.4,029.7,015.7,0000.0,0004.93,0001.02,0000.64
2024-06-05 20:47:00,SystemResetWarning,0827.6,5.01,000.00,028.6,025.7,000.0,037.4,029.5,016.0,0000.0,0006.08,0001.02,0000.64
2024-06-05 20:48:00,SystemResetWarning,0827.5,5.00,000.00,028.6,026.3,000.0,037.3,029.8,015.4,0000.0,0005.79,0001.03,0000.64
2024-06-05 20:49:00,SystemResetWarning,0827.5,5.00,000.00,028.6,026.8,000.0,037.2,030.0,015.4,0000.0,0005.90,0001.07,0000.65
2024-06-05 20:50:00,SystemResetWarning,0827.6,5.01,000.00,028.7,027.2,000.0,037.1,030.2,015.6,0000.0,0005.87,0001.08,0000.66
2024-06-05 20:51:00,SystemResetWarning,0827.5,4.99,000.00,028.7,027.6,000.0,037.1,030.4,015.4,0000.0,0005.85,0001.10,0000.68
2024-06-05 20:52:00,SystemResetWarning,0827.5,4.99,000.00,028.8,027.9,000.0,037.1,030.6,015.5,0000.0,0005.62,0001.08,0000.67
2024-06-05 20:53:00,SystemResetWarning,0827.7,5.00,000.00,028.9,028.2,000.0,037.1,030.7,015.9,0000.0,0005.48,0001.09,0000.66
2024-06-05 20:54:00,SystemResetWarning,0827.7,5.01,000.00,029.0,028.5,000.0,037.2,030.8,015.5,0000.0,0005.54,0001.09,0000.66
2024-06-05 20:55:00,SystemResetWarning,0827.7,5.01,000.00,029.1,028.7,000.0,037.2,030.9,015.3,0000.0,0005.68,0001.12,0000.66
2024-06-05 20:56:00,SystemResetWarning,0827.7,5.01,000.00,029.1,028.9,000.0,037.2,031.0,015.5,0000.0,0005.37,0001.15,0000.65
2024-06-05 20:57:00,SystemResetWarning,0827.7,4.99,000.00,029.2,028.5,000.0,037.3,030.8,015.1,0000.0,0004.92,0001.17,0000.65
2024-06-05 20:58:00,SystemResetWarning,0827.6,4.99,000.00,028.9,026.4,000.0,037.3,029.7,015.2,0000.0,0003.92,0001.19,0000.65
2024-06-05 20:59:00,SystemResetWarning,0827.5,5.02,000.00,028.6,025.6,000.0,037.3,029.4,015.9,0000.0,0004.28,0001.21,0000.65
